Home   Weather   Paderborn   Past weeks

Flag for Germany Past Weather in Paderborn, North Rhine-Westphalia, Germany — Yesterday and Last 2 Weeks

45 °F


Feels Like: 40 °F
Forecast: 47 / 51 °F
Wind: 9 mph from Southeast

Location: Paderborn / Lippstadt

Current Time: Oct 24, 2016 at 5:37:03 AM

Latest Report: Oct 24, 2016 at 4:50 AM

Visibility: 4 mi

Pressure: 29.89 "Hg

Humidity: 87%

Dew Point: 41 °F

Location of PaderbornLocation

Past Weather in Paderborn — Graph


Paderborn Temperature Yesterday

Maximum temperature yesterday: 50 °F (at 2:50 PM)
Minimum temperature yesterday: 37 °F (at 6:50 AM)
Average temperature yesterday: 43 °F

High & Low Weather Summary for the Past Weeks

High66 °F (Oct 16, 2:50 PM)100% (Oct 21, 5:20 AM)30.27 "Hg (Oct 21, 5:20 AM)
Low34 °F (Oct 11, 5:20 AM)49% (Oct 16, 2:50 PM)29.68 "Hg (Oct 15, 1:50 AM)
Average47 °F82%30.02 "Hg
* Reported Oct 9 4:20 AM — Oct 24 4:20 AM, Paderborn, Weather by CustomWeather, © 2016

Note: Actual official high and low records may vary slightly from our data, if they occured in-between our weather recording intervals... More about our weather records


Paderborn Weather History for the Previous 24 Hours

Scroll right to see more
Time TempWeatherWind HumidityBarometerVisibility
4:20 AM
Mon, Oct 24
45 °FClear.8 mph87%29.92 "Hg4 mi
3:50 AM45 °FClear.8 mph87%29.92 "Hg6 mi
3:20 AM45 °FClear.9 mph87%29.92 "Hg6 mi
2:50 AM45 °FClear.9 mph87%29.92 "Hg10 mi
2:20 AM45 °FClear.8 mph81%29.92 "Hg6 mi
1:50 AM45 °FClear.8 mph81%29.92 "Hg6 mi
1:20 AM45 °FClear.9 mph81%29.92 "Hg10 mi
12:50 AM43 °FClear.8 mph87%29.92 "Hg10 mi
12:20 AM43 °FClear.8 mph87%29.92 "Hg10 mi
11:50 PM
Sun, Oct 23
43 °FClear.8 mph87%29.92 "Hg10 mi
11:20 PM43 °FClear.6 mph87%29.92 "Hg10 mi
10:50 PM45 °FClear.5 mph81%29.92 "Hg10 mi
10:20 PM43 °FClear.5 mph87%29.92 "Hg10 mi
9:50 PM43 °FClear.5 mph87%29.92 "Hg10 mi
9:20 PM43 °FClear.2 mph81%29.92 "Hg10 mi
8:50 PM41 °FClear.3 mph87%29.92 "Hg10 mi
8:20 PM41 °FClear.6 mph87%29.89 "Hg10 mi
7:50 PM41 °FClear.6 mph87%29.92 "Hg10 mi
7:20 PM43 °FClear.7 mph81%29.92 "Hg10 mi
6:50 PM45 °FClear.6 mph76%29.92 "Hg10 mi
6:20 PM45 °FClear.6 mph76%29.92 "Hg10 mi
5:50 PM46 °FSunny.7 mph76%29.92 "Hg10 mi
5:20 PM48 °FSunny.8 mph71%29.89 "Hg10 mi
4:50 PM48 °FSunny.12 mph66%29.89 "Hg10 mi
4:20 PM50 °FPassing clouds.10 mph62%29.92 "HgN/A
3:50 PM50 °FPassing clouds.8 mph62%29.92 "HgN/A
3:20 PM50 °FPassing clouds.9 mph62%29.89 "HgN/A
2:50 PM50 °FPassing clouds.9 mph62%29.92 "HgN/A
2:20 PM48 °FPassing clouds.9 mph66%29.92 "HgN/A
1:50 PM48 °FPassing clouds.9 mph66%29.92 "HgN/A
1:20 PM48 °FPassing clouds.8 mph71%29.92 "HgN/A
12:50 PM46 °FPassing clouds.9 mph71%29.92 "HgN/A
12:20 PM46 °FPassing clouds.10 mph76%29.95 "HgN/A
11:50 AM45 °FPassing clouds.12 mph81%29.95 "HgN/A
11:20 AM43 °FPassing clouds.10 mph87%29.95 "HgN/A
10:50 AM43 °FPassing clouds.8 mph87%29.95 "Hg5 mi
10:20 AM41 °FPassing clouds.8 mph87%29.95 "Hg5 mi
9:50 AM41 °FClear.7 mph87%29.95 "Hg5 mi
9:20 AM39 °FClear.8 mph87%29.95 "Hg5 mi
8:50 AM39 °FLight fog.7 mph87%29.95 "Hg5 mi
8:20 AM37 °FLight fog.7 mph93%29.95 "Hg5 mi
7:50 AM37 °FPassing clouds.5 mph93%29.92 "Hg5 mi
7:20 AM37 °FPassing clouds.1 mph93%29.92 "HgN/A
6:50 AM37 °FPassing clouds.2 mph93%29.92 "Hg6 mi
6:20 AM39 °FPassing clouds.1 mph93%29.95 "Hg6 mi
5:50 AM39 °FPassing clouds.1 mph87%29.95 "Hg6 mi
5:20 AM41 °FPassing clouds.1 mph87%29.95 "HgN/A
Weather by CustomWeather, © 2016

See weather overviewHow to use our weather pages